Regional Weather Roundup
Issued by NWS

Home | Current Version | Previous Version | Text Only | Print | Product List | Glossary Off
Versions: 1 2 3 4 5 6 7 8 9 10 11 12 13 14 15 16 17 18 19 20 21 22 23 24 25 26 27 28 29 30 31 32 33 34 35 36 37 38 39 40 41 42 43 44 45 46 47 48 49 50

000
ASUS45 KABQ 090401
RWRNM
NEW MEXICO REGIONAL WEATHER ROUNDUP
NATIONAL WEATHER SERVICE ALBUQUERQUE NM
900 PM MST THU DEC 08 2016

NOTE: "FAIR" MEANS FEW OR NO CLOUDS BELOW 12,000 FEET AGL WITH NO
       SIGNIFICANT WEATHER OR OBSTRUCTIONS TO VISION.

      THIS PRODUCT IS RELEASED AS TWO VERSIONS.  ONE VERSION NEAR
      THE TOP OF THE HOUR CONTAINING PRELIMINARY DATA FROM ALBUQUERQUE
      AND OTHER STATIONS.  A FINAL VERSION WITH ADDITIONAL DATA IS
      ISSUED ABOUT 10 MINUTES AFTER THE HOUR.

NMZ501-503-504-510>518-090500-
NORTHWEST PLATEAU/NORTHCENTRAL MOUNTAINS

CITY           SKY/WX    TMP DP  RH WIND       PRES   REMARKS
FARMINGTON     MOCLDY    32  17  54 SE7       30.29R WCI  26
LOS ALAMOS     FAIR      28  16  60 CALM      30.32S
SANTA FE       FAIR      19  12  74 CALM      30.32R
TAOS           FAIR      19   9  63 CALM      30.32S
ANGEL FIRE     FAIR      26  11  52 CALM      30.27F

$$
NMZ402-403-502-505>509-090500-
WESTCENTRAL MOUNTAINS/SOUTHWEST MOUNTAINS

CITY           SKY/WX    TMP DP  RH WIND       PRES   REMARKS
GALLUP         FAIR      27  18  69 CALM      30.30R
GRANTS         FAIR      24  16  74 S10       30.33F WCI  13

$$
NMZ407-409-411-412-090500-
SOUTHERN DESERTS

CITY           SKY/WX    TMP DP  RH WIND       PRES   REMARKS
DEMING         FAIR      35  27  72 E12       30.38R WCI  27
LAS CRUCES     FAIR      31  25  76 SE12      30.40S WCI  22
HOLLOMAN AFB   FAIR      31  23  72 S7        30.47R WCI  24
T OR C         FAIR      35  24  64 SE6       30.38R WCI  30

$$
NMZ519>523-090500-
CENTRAL VALLEYS/CENTRAL HIGHLANDS

CITY           SKY/WX    TMP DP  RH WIND       PRES   REMARKS
ALBUQUERQUE    FAIR      30  15  53 SE5       30.36R WCI  25
DOUBLE EAGLE   CLEAR     21  12  68 CALM      30.35R
CLINES CORNERS FAIR      19  15  84 W8        30.31S WCI   9
BELEN          FAIR      28  17  65 S7        30.37R WCI  20
SOCORRO        FAIR      30  23  75 SW6       30.39R WCI  24

$$
NMZ524>526-539-540-090500-
SOUTHCENTRAL MOUNTAINS

CITY           SKY/WX    TMP DP  RH WIND       PRES   REMARKS
RUIDOSO        FOG       19  18  93 CALM      30.37S VSB<1/4

$$
NMZ527>531-090500-
NORTHEAST HIGHLANDS/NORTHEAST PLAINS

CITY           SKY/WX    TMP DP  RH WIND       PRES   REMARKS
LAS VEGAS      CLOUDY    18  16  92 S12       30.27R FOG     WCI   5
RATON          CLOUDY    16  13  88 S7        30.28S FOG     WCI   6
CLAYTON        CLOUDY    19  15  84 S16       30.36F WCI   4

$$
NMZ532>537-090500-
EASTCENTRAL PLAINS

CITY           SKY/WX    TMP DP  RH WIND       PRES   REMARKS
TUCUMCARI      CLOUDY    26  17  68 S8        30.43F WCI  18
CANNON AFB     CLOUDY    26  20  80 S7        30.47R WCI  18
CLOVIS AIRPORT CLOUDY    25  14  63 S10       30.47S WCI  15

$$
NMZ028-029-538-090500-
SOUTHEAST PLAINS

CITY           SKY/WX    TMP DP  RH WIND       PRES   REMARKS
ROSWELL        CLOUDY    30  22  72 S10       30.50S WCI  21
ARTESIA        CLOUDY    28  27  93 S10       30.53R WCI  19
CARLSBAD       NOT AVBL


$$




USA.gov is the U.S. government's official web portal to all federal, state and local government web resources and services.